RH
26 29 28 27 27 27 27 27 27 30 30 29 29 31 33 35 34 28 24 21 19 19 20 20 20 20 21 22 23 24 25 26 26 26 26 26 26 25 24 24 23 22 22
18 19 23 24 25 29 32 33 34 36 36 34 34 34 36 36 37 34 28 24 22 21 22 23 23 23 23 24 25 27 28 29 30 31 32 32 31 31 30 30 28 27 26
12 15 23 20 24 31 34 37 41 46 44 40 40 37 36 36 36 37 33 29 26 24 23 25 25 26 25 26 28 30 31 32 34 36 36 36 35 37 36 36 35 34 33
13 14 24 26 25 28 37 43 48 53 53 51 46 42 41 41 42 44 42 36 32 29 26 27 29 29 28 28 29 32 32 35 37 39 38 40 40 40 40 40 40 39 38
18 20 21 25 27 27 39 48 52 60 62 56 50 50 45 43 46 47 46 41 37 33 30 30 33 33 32 31 31 32 34 36 38 40 42 42 43 43 42 43 43 44 44
21 25 28 29 31 30 34 51 60 69 71 60 53 52 49 47 48 50 50 49 45 38 35 33 34 38 38 36 35 35 36 37 40 42 45 46 47 46 48 49 50 49 47
36 36 35 34 36 35 39 49 59 59 64 67 56 53 52 50 50 52 53 54 52 47 43 41 38 40 43 43 41 39 38 39 40 43 45 49 51 51 52 51 50 50 52
46 47 48 47 45 46 50 56 57 56 51 51 49 58 58 54 55 55 56 57 58 56 50 46 45 43 44 47 48 47 45 44 44 44 45 47 50 53 55 55 55 56 56
63 62 61 59 61 53 55 62 66 65 60 58 58 55 52 52 60 67 65 64 64 64 61 54 50 48 46 46 48 51 52 51 50 49 49 49 50 52 55 58 60 61 60
86 83 81 81 81 70 72 79 80 81 78 73 72 68 65 63 63 66 68 72 74 73 71 67 62 57 55 53 51 51 53 55 55 55 54 54 54 55 57 60 62 63 67
100 100 99 99 100 95 96 98 100 100 100 98 96 94 86 77 71 75 85 81 79 77 77 78 75 71 67 64 62 61 58 55 57 59 62 62 62 62 61 63 66 75 75
100 100 100 100 100 100 100 100 100 100 100 100 100 100 100 97 93 93 97 94 88 85 87 85 84 83 81 77 73 72 70 68 66 63 63 65 66 68 77 82 75 94 95
97 98 99 99 99 100 100 100 100 100 100 100 100 100 100 100 100 100 100 100 93 92 94 98 98 98 95 93 90 87 86 83 85 82 76 82 93 88 76 75 89 88 90
95 95 95 95 95 96 96 96 97 98 99 99 99 99 100 100 100 100 100 100 100 100 100 100 100 100 100 98 98 97 97 97 97 97 97 97 97 97 97 94 91 87 82
96 96 96 95 96 95 95 95 95 95 95 96 96 96 96 96 96 97 98 98 98 98 97 98 99 96 97 97 96 96 96 96 96 96 96 97 97 97 97 97 97 97 96
95 96 95 94 94 94 95 95 95 95 95 95 95 95 95 96 96 95 95 96 96 95 95 95 95 95 96 95 95 95 95 96 96 96 96 96 97 96 96 96 96 95 95
96 97 95 96 96 93 92 87 90 94 95 95 95 96 95 95 94 95 95 95 96 96 95 95 95 95 96 96 96 92 95 96 96 96 95 94 95 96 97 97 96 96 94
82 83 86 85 80 80 82 84 80 77 74 70 72 81 87 92 94 92 87 87 92 94 93 93 94 94 95 95 95 94 96 95 97 97 96 95 95 95 96 96 96 96 96
70 63 56 51 50 48 48 49 52 59 64 68 70 73 74 75 75 74 75 76 77 77 79 82 82 85 90 94 95 93 95 95 94 92 96 96 96 95 97 96 97 97 97
31 27 23 20 18 17 15 14 14 14 15 15 15 19 23 31 50 65 72 74 74 77 82 86 87 90 90 92 96 96 93 93 95 96 91 94 95 95 96 96 96 97 97
15 14 13 13 13 12 11 11 10 10 9 9 9 9 9 9 10 13 16 19 37 66 78 79 83 83 86 94 100 100 100 97 91 92 97 96 97 98 98 96 96 95 97
15 15 14 13 12 11 11 10 10 10 9 9 9 8 8 8 8 8 8 8 9 12 21 32 71 93 94 94 98 99 98 95 95 97 96 98 99 99 98 97 97 97 98
15 14 14 13 12 12 12 12 12 11 11 11 10 10 10 9 9 8 7 7 7 7 7 8 12 23 38 87 98 99 100 100 100 95 98 99 99 98 98 100 100 98 96
15 15 15 15 15 15 15 15 15 15 14 14 14 14 13 12 12 11 10 10 9 7 6 6 6 8 10 21 33 51 94 100 100 100 100 100 100 98 100 99 100 99 98
19 19 20 20 20 21 21 21 21 21 20 19 18 18 17 17 16 15 14 13 12 11 10 8 8 7 7 9 11 20 33 40 65 98 99 100 100 100 99 99 100 100 100
28 28 29 29 29 29 28 28 27 26 26 25 24 23 22 21 20 19 18 18 17 16 15 13 12 11 10 11 13 14 18 35 46 50 47 70 99 100 100 100 99 99 99
Wind_Speed
25 27 28 29 30 31 28 28 27 25 25 25 23 20 18 19 20 20 20 19 20 20 20 20 20 20 19 19 19 18 17 17 16 15 15 16 16 15 15 14 14 13 13
26 26 25 25 27 29 26 25 25 26 27 26 26 25 23 23 23 24 23 23 22 22 22 22 22 22 22 21 20 19 18 18 17 16 16 17 17 16 16 16 16 16 16
21 22 23 20 19 24 24 21 20 21 24 25 27 27 28 27 25 23 22 22 23 23 23 24 24 24 24 23 22 21 20 19 19 18 19 18 17 17 17 17 17 18 18
28 23 23 21 19 21 22 21 20 21 22 25 27 28 27 26 23 21 23 24 25 25 25 26 26 26 26 26 25 24 24 23 22 21 21 19 19 19 19 18 18 18 19
30 23 23 25 25 26 26 24 24 24 24 26 26 28 29 28 26 26 27 28 27 27 27 28 28 28 28 28 28 28 27 27 26 25 24 24 23 22 21 20 19 19 19
23 23 23 24 24 26 31 31 29 26 27 28 27 28 29 30 29 29 30 30 29 29 29 29 29 29 30 30 31 31 31 30 30 30 29 28 27 25 25 23 22 23 22
20 23 25 25 24 26 31 34 35 36 35 31 30 30 31 33 32 33 33 34 32 30 30 30 30 30 31 32 33 34 34 34 34 34 32 33 32 30 30 30 29 28 26
22 23 24 25 24 26 30 35 38 38 39 37 35 33 32 34 34 36 36 37 35 34 35 35 35 34 34 35 36 37 37 37 37 37 36 37 36 35 35 34 34 33 33
28 25 25 26 25 29 32 34 36 37 38 37 35 36 37 37 36 36 38 38 38 37 38 38 37 38 38 38 39 40 40 40 40 40 40 40 40 40 39 39 39 38 39
29 28 27 27 27 30 32 32 33 34 35 36 36 36 37 38 39 39 41 41 41 41 40 40 39 39 40 41 42 42 42 43 43 43 43 43 43 43 43 43 43 43 43
30 29 28 28 29 31 31 31 31 32 33 34 35 36 37 38 39 40 40 42 43 43 43 43 42 42 42 43 44 44 45 46 46 46 47 45 45 45 46 47 47 47 48
25 29 31 30 30 32 33 33 31 32 32 34 35 35 35 37 38 38 38 40 42 43 43 44 45 46 46 47 48 48 49 49 49 49 50 49 49 49 50 50 50 55 55
21 22 24 27 28 27 31 35 36 36 37 37 36 37 37 37 37 38 39 38 40 42 43 44 46 48 49 50 51 51 51 52 54 54 54 55 57 56 54 53 55 57 59
22 21 21 22 23 24 25 27 30 37 40 40 39 39 39 40 40 41 41 41 41 41 42 43 44 46 47 49 52 52 52 53 55 56 56 58 59 61 63 63 62 60 63
19 19 19 19 20 21 22 23 25 27 29 31 34 37 39 40 42 43 44 45 45 44 44 44 45 46 47 49 50 52 53 54 55 55 55 55 56 56 56 58 60 61 59
21 21 22 22 21 20 20 21 21 21 22 23 24 27 30 31 33 36 40 43 46 48 47 47 47 48 49 50 50 51 53 53 53 53 53 52 53 54 55 56 57 57 57
21 20 22 23 24 24 24 24 25 25 25 24 24 25 26 27 28 29 30 32 34 36 38 38 38 39 40 43 45 48 46 46 48 50 51 52 51 51 52 53 54 54 54
20 20 21 20 21 21 22 23 23 23 22 23 24 24 25 26 27 28 28 29 30 30 31 33 34 35 36 37 38 41 41 43 44 45 47 48 49 50 50 50 50 51 51
22 22 22 22 21 22 22 22 24 24 24 23 24 24 24 24 25 25 26 26 27 28 29 30 31 32 33 35 36 38 38 39 40 40 40 41 43 45 45 45 45 45 46
26 26 25 26 26 27 27 27 27 27 27 27 27 27 28 28 27 27 27 27 28 28 29 30 30 31 31 32 34 36 37 37 38 39 39 40 40 41 42 43 44 45 44
30 31 31 31 31 31 32 32 33 34 33 33 32 32 32 33 33 32 31 31 31 31 31 32 32 32 33 33 35 37 38 39 39 39 40 40 41 42 43 44 44 45 45
32 33 34 34 34 35 36 36 36 36 36 37 37 37 37 37 38 38 37 37 38 37 36 35 34 34 34 35 35 36 38 40 43 43 43 43 45 46 46 48 48 48 49
36 37 37 37 36 37 38 39 39 39 39 40 39 39 39 38 39 39 39 39 40 41 41 41 41 39 38 38 37 37 38 39 42 44 44 45 45 46 47 46 46 49 50
39 39 40 42 41 39 40 41 42 42 42 43 42 42 41 41 41 41 42 42 41 42 43 44 45 45 44 43 42 41 41 40 40 40 41 42 41 40 39 39 39 39 40
42 43 44 45 45 45 44 44 44 46 46 46 45 45 45 44 43 43 43 44 43 43 43 43 44 45 46 46 46 46 45 43 42 42 42 42 41 40 39 39 38 38 39
45 46 47 48 48 48 48 48 48 49 50 49 48 48 48 47 46 45 44 43 44 43 43 44 44 45 46 45 45 45 45 45 44 44 45 45 44 43 42 42 42 41 41
Wind_Direction
260 266 265 259 252 250 250 248 253 259 260 260 258 258 260 254 248 247 245 244 243 240 237 236 235 233 232 232 233 236 239 239 240 242 243 244 246 246 247 247 246 246 244
257 254 259 262 255 248 249 249 252 259 260 258 255 252 251 246 242 241 241 242 242 240 239 238 237 235 233 234 237 238 238 239 240 240 242 244 247 250 251 251 250 249 250
260 262 249 247 240 239 248 255 258 258 255 251 248 246 245 245 245 250 250 250 247 244 241 239 238 238 237 236 235 235 236 237 237 241 246 249 253 255 254 254 254 256 257
258 260 239 238 233 225 225 236 247 255 253 248 245 241 239 241 242 243 242 240 241 240 239 240 240 239 238 239 238 237 237 235 237 240 244 247 251 255 257 258 260 260 261
250 250 240 240 241 228 210 222 238 246 247 247 245 238 233 234 236 235 237 238 238 237 237 238 239 240 241 241 241 240 240 240 240 242 244 245 248 252 257 260 262 263 263
238 241 235 236 235 236 221 213 218 233 242 244 243 237 232 232 232 233 237 240 241 240 239 239 240 241 241 243 243 243 242 242 241 242 242 245 248 251 254 257 259 261 261
238 241 239 235 233 233 225 222 222 223 225 235 239 237 233 232 232 232 234 236 237 238 239 239 239 241 242 243 244 245 244 244 244 245 245 246 247 250 252 254 256 259 261
242 241 238 233 229 230 226 225 227 229 233 232 229 231 237 237 235 232 232 234 236 237 237 236 234 234 236 239 242 244 245 246 246 247 249 249 250 251 252 254 256 257 258
247 243 237 237 233 235 234 231 231 233 235 236 234 234 234 233 233 234 235 235 235 236 238 239 239 238 237 238 240 242 244 245 246 247 248 250 252 252 253 254 255 256 257
250 247 242 239 237 237 237 236 235 235 236 237 237 237 238 238 236 234 232 232 234 236 239 241 241 243 243 242 243 243 244 245 246 247 247 248 250 252 253 253 255 257 257
254 255 252 249 243 240 239 239 240 240 241 242 243 242 240 240 240 238 237 237 237 237 238 241 243 243 244 245 245 245 246 247 247 247 249 249 250 251 253 254 253 255 258
261 259 258 257 253 249 246 244 241 241 241 242 242 243 244 243 244 245 245 243 241 241 242 244 246 246 245 246 247 246 246 247 248 248 249 249 250 249 250 253 254 254 252
271 268 265 262 259 257 251 248 247 244 244 245 246 246 246 247 247 249 249 249 246 245 244 244 245 247 248 249 249 249 248 248 248 248 248 248 248 249 250 250 251 254 257
280 279 278 277 275 270 261 255 252 251 250 250 249 249 248 247 247 248 249 250 253 254 253 251 248 246 248 249 249 249 251 253 254 255 256 256 256 254 251 248 247 249 254
292 292 287 282 280 280 278 275 270 264 263 262 259 256 253 251 250 250 249 249 249 251 252 252 252 253 253 252 252 252 252 251 251 251 251 252 252 252 254 256 256 254 254
298 300 301 301 300 295 292 290 285 279 275 273 272 271 267 264 261 261 261 262 261 262 261 261 261 263 263 263 261 258 257 256 255 255 255 254 254 254 254 254 254 254 254
301 303 304 303 303 303 303 298 294 292 290 286 283 280 278 278 278 275 272 270 269 267 263 261 260 260 260 260 261 262 262 260 260 259 258 256 254 253 252 252 253 252 253
308 308 303 300 301 300 298 300 300 297 295 293 291 290 287 283 279 277 276 275 272 271 271 270 268 265 264 264 264 263 261 259 257 256 257 257 256 255 253 251 251 251 250
308 306 303 303 301 299 298 296 296 296 296 295 294 292 289 287 284 282 279 276 274 272 269 266 266 266 266 265 266 267 266 266 265 263 261 259 256 254 252 251 248 246 246
303 301 299 300 299 298 297 295 293 292 292 291 291 290 290 289 287 285 283 282 280 276 274 272 270 266 263 261 262 263 265 265 265 264 263 263 260 258 254 249 247 243 240
300 299 299 299 299 296 294 294 294 293 293 291 289 287 286 286 285 284 284 283 281 279 277 274 272 269 267 266 265 262 261 262 262 261 261 261 260 256 252 252 251 251 249
296 294 294 294 293 292 291 290 289 288 288 286 286 285 285 284 283 282 281 280 278 277 276 276 274 274 272 269 265 264 264 264 262 259 257 256 257 257 257 256 252 250 249
297 296 295 293 292 292 291 290 289 287 285 284 283 283 282 280 280 280 278 276 275 274 273 272 272 270 268 267 267 264 261 258 259 261 259 257 254 253 253 251 252 251 247
299 298 296 296 296 295 293 292 290 287 285 283 282 282 281 280 279 279 278 278 276 274 273 271 269 268 267 265 263 262 260 258 256 256 257 257 253 249 248 245 243 243 245
302 300 298 297 296 295 293 292 290 288 287 286 285 284 282 280 279 278 277 276 276 276 274 273 272 270 268 266 266 264 263 262 261 259 257 255 255 254 251 249 247 245 244
302 300 299 298 296 295 293 292 290 287 286 285 284 282 281 280 279 278 276 275 275 273 272 272 272 270 269 267 264 263 263 262 261 259 259 257 257 256 254 254 252 250 250